This is the latest recevied weather packets stored in our database for station/object WX7EM. If no packets are shown the sender has not sent any weather packets the latest 10 day(s).
| Time | Temp. | Humidity | Pressure | Rain* | Wind** | Luminosity | Snow |
|---|---|---|---|---|---|---|---|
| 1777826899 | 17.22° C | 80% | 1010.8 hPa | 0 mm | - | 503 W/m² | - |
| 1777826597 | 17.22° C | 79% | 1011 hPa | 0 mm | - | 489 W/m² | - |
| 1777826292 | 17.78° C | 77% | 1010.8 hPa | 0 mm | - | 470 W/m² | - |
| 1777825991 | 17.78° C | 76% | 1011 hPa | 0 mm | - | 454 W/m² | - |
| 1777825687 | 17.78° C | 77% | 1011 hPa | 0 mm | - | 444 W/m² | - |
| 1777825385 | 17.22° C | 78% | 1011.1 hPa | 0 mm | - | 427 W/m² | - |
| 1777825082 | 16.67° C | 77% | 1011.2 hPa | 0 mm | - | 416 W/m² | - |
| 1777824778 | 16.67° C | 77% | 1011.2 hPa | 0 mm | - | 400 W/m² | - |
| 1777824475 | 16.67° C | 76% | 1011 hPa | 0 mm | - | 385 W/m² | - |
| 1777824171 | 16.67° C | 77% | 1011.1 hPa | 0 mm | - | 372 W/m² | - |
| 1777823867 | 16.67° C | 78% | 1011 hPa | 0 mm | - | 360 W/m² | - |
| 1777823565 | 16.11° C | 79% | 1011.1 hPa | 0 mm | - | 348 W/m² | - |
| 1777823262 | 15.56° C | 79% | 1011.1 hPa | 0 mm | - | 338 W/m² | - |
| 1777822959 | 15.56° C | 80% | 1011.2 hPa | 0 mm | - | 286 W/m² | - |
| 1777822657 | 15.56° C | 81% | 1011.2 hPa | 0 mm | - | 250 W/m² | - |
| 1777822355 | 15° C | 83% | 1011.2 hPa | 0 mm | - | 230 W/m² | - |
| 1777822052 | 14.44° C | 84% | 1011.3 hPa | 0 mm | - | 209 W/m² | - |
| 1777821750 | 15° C | 83% | 1011.3 hPa | 0 mm | - | 190 W/m² | - |
| 1777821447 | 13.89° C | 86% | 1011.2 hPa | 0 mm | - | 172 W/m² | - |
| 1777821144 | 13.89° C | 85% | 1011.2 hPa | 0 mm | - | 162 W/m² | - |
| 1777820841 | 13.89° C | 88% | 1011.3 hPa | 0 mm | - | 146 W/m² | - |
| 1777820537 | 13.33° C | 89% | 1011.3 hPa | 0 mm | - | 135 W/m² | - |
| 1777820234 | 12.78° C | 89% | 1011.3 hPa | 0 mm | - | 124 W/m² | - |
| 1777819931 | 12.78° C | 90% | 1011.2 hPa | 0 mm | - | 115 W/m² | - |
| 1777819628 | 12.78° C | 92% | 1011.3 hPa | 0 mm | - | 103 W/m² | - |
* Rain latest hour (hover to see other rain measurements)
** Current wind speed in m/s (hover to see current wind gust speed)